Flag Weather past 2 weeks in Samara, Russia

Now
37 °F

Sprinkles. Fog.


Feels Like: 33 °F
Forecast: 31 / 37 °F
Wind: 6 mph from Southwest

Location: Samara

Current Time: Nov 1, 2014 at 10:18:05 AM

Latest Report: Nov 1, 2014 at 9:30 AM


Visibility: 2 mi

Pressure: 29.89 "Hg

Humidity: 87%

Dew point: 34 °F

Location of SamaraLocation

Historic Weather in Samara — Graph

°F

Samara temperature yesterday

Maximum temperature yesterday: 46 °F (at 2:00 PM)
Minimum temperature yesterday: 41 °F (at 4:00 AM)
Average temperature yesterday: 43 °F

Past Weeks' High & Low Weather Summary

 TemperatureHumidityPressure
High59 °F (Oct 17, 6:00 PM)94% (Oct 17, 1:00 PM)30.60 "Hg (Oct 17, 1:00 PM)
Low14 °F (Oct 23, 8:00 PM)38% (Oct 27, 1:30 PM)29.30 "Hg (Oct 22, 1:30 AM)
Average32 °F71%30.00 "Hg
* Reported Oct 17 9:00 AM — Nov 1 9:00 AM, Samara, Weather by CustomWeather, © 2014

Note: Actual official high and low records may vary slightly from our data, if they occured in-between our weather recording intervals... More about our weather records

Advertising

Samara weather history for previous 24 hours

 ConditionsComfort  
Time TempWeatherWind HumidityBarometerVisibility
9:00 AM
Nov 1
37 °FSprinkles. Fog.8 mph93%29.89 "Hg2 mi
8:30 AM37 °FSprinkles. Fog.6 mph93%29.89 "Hg2 mi
8:00 AM37 °FSprinkles. Fog.6 mph93%29.89 "Hg1 mi
7:30 AM37 °FSprinkles. Fog.6 mph93%29.89 "Hg1 mi
7:00 AM37 °FSprinkles. Fog.6 mph93%29.92 "Hg1 mi
6:30 AM37 °FSprinkles. Fog.6 mph93%29.92 "Hg2 mi
6:00 AM37 °FSprinkles. Fog.6 mph93%29.92 "Hg2 mi
5:30 AM37 °FSprinkles. Fog.6 mph93%29.92 "Hg2 mi
5:00 AM39 °FSprinkles. Fog.6 mph87%29.95 "Hg2 mi
4:30 AM39 °FSprinkles. Fog.8 mph87%29.95 "Hg1 mi
4:00 AM39 °FSprinkles. Fog.6 mph87%29.95 "Hg1 mi
3:00 AM41 °FLight rain. Fog.6 mph87%29.98 "Hg2 mi
2:30 AM41 °FSprinkles. Fog.6 mph87%29.98 "Hg2 mi
2:00 AM41 °FSprinkles. Fog.6 mph87%30.01 "Hg1 mi
1:30 AM41 °FFog.8 mph81%30.01 "Hg2 mi
1:00 AM41 °FFog.6 mph81%30.01 "Hg2 mi
12:30 AM41 °FFog.8 mph81%30.01 "Hg2 mi
12:00 AM41 °FFog.10 mph81%30.04 "Hg2 mi
11:30 PM
Oct 31
41 °FFog.10 mph81%30.04 "Hg2 mi
11:00 PM41 °FFog.13 mph81%30.04 "Hg2 mi
10:30 PM43 °FFog.13 mph76%30.04 "Hg2 mi
10:00 PM43 °FFog.10 mph76%30.04 "Hg2 mi
9:30 PM43 °FFog.10 mph76%30.04 "Hg2 mi
9:00 PM43 °FLight rain. Fog.13 mph76%30.07 "Hg2 mi
8:30 PM43 °FFog.15 mph76%30.07 "Hg2 mi
8:00 PM43 °FFog.15 mph71%30.07 "Hg2 mi
7:30 PM43 °FFog.13 mph76%30.07 "Hg2 mi
7:00 PM45 °FMostly cloudy.13 mph71%30.07 "Hg2 mi
6:30 PM45 °FMostly cloudy.17 mph66%30.07 "Hg2 mi
6:00 PM45 °FMore clouds than sun.17 mph66%30.07 "Hg2 mi
5:30 PM45 °FMore clouds than sun.15 mph66%30.07 "HgN/A
5:00 PM45 °FMore clouds than sun.17 mph66%30.07 "HgN/A
4:30 PM45 °FMore clouds than sun.13 mph66%30.07 "HgN/A
4:00 PM46 °FBroken clouds.13 mph57%30.07 "HgN/A
3:30 PM46 °FBroken clouds.13 mph57%30.07 "HgN/A
3:00 PM46 °FBroken clouds.15 mph57%30.07 "HgN/A
2:30 PM46 °FBroken clouds.13 mph62%30.09 "HgN/A
2:00 PM46 °FBroken clouds.10 mph62%30.09 "HgN/A
1:30 PM45 °FBroken clouds.10 mph71%30.09 "HgN/A
1:00 PM45 °FMore clouds than sun.8 mph71%30.09 "HgN/A
12:30 PM43 °FMore clouds than sun.8 mph76%30.09 "HgN/A
12:00 PM43 °FLight rain. More clouds than sun.10 mph76%30.12 "HgN/A
11:30 AM43 °FMore clouds than sun.10 mph76%30.12 "HgN/A
11:00 AM41 °FMore clouds than sun.10 mph81%30.12 "HgN/A
10:30 AM41 °FMore clouds than sun.13 mph76%30.12 "HgN/A
10:00 AM41 °FMore clouds than sun.10 mph76%30.12 "HgN/A
Weather by CustomWeather, © 2014

See weather overviewHow to use our weather pages